sat.trackr.live / text

‹ back to catalog

STARLINK-34490

NORAD 64478 · 2025-133G

PAYLOAD ACTIVE UNKNOWN

§ Identity

Operator
Country
US
Launch date
2025-06-23
Launch site
AFETR
Launch vehicle
Mass (kg)
RCS (m²)

Purposes: comms

External: N2YO · Heavens-Above · Gunter

§ Orbital elements

Epoch: 2026-05-25T04:37:02.368128Z

Period
94.10 min
Inclination
53.1608°
Eccentricity
0.0001474
Mean motion
15.30211910 rev/d
Perigee alt
474.2 km
Apogee alt
476.2 km
Semi-major
6,853.3 km
B*
5.2985e-4
RAAN
121.2831°
Arg perigee
92.4883°
Mean anomaly
267.6287°
Rev number
5,290

§ Raw data

STARLINK-344901 64478U 25133G   26145.19238852  .00015372  00000+0  52985-3 0  99982 64478  53.1608 121.2831 0001474  92.4883 267.6287 15.30211910 52909

JSON: /api/v1/satellites/64478 · /tle

For live sub-satellite position, see the globe view (requires WebGL).

§ Visibility from observer

Set your observer location to see the next 7 days of passes ≥ 10°. The values pass through the URL so the page stays shareable.

No JS? Fill the form by hand. The geolocation button needs JavaScript.